Theta_e
297 292 292 295 302 306 308 310 313 320 328 328 330 341 342 350 356 357 355 357 359 362 361 361 360 360 359 359 359 360 360 360
294 292 297 300 302 304 307 309 316 322 325 333 340 341 348 355 356 355 354 356 361 362 361 360 360 360 359 359 359 359 359 359
290 294 300 301 304 304 304 308 316 323 325 329 342 350 351 353 354 352 353 355 359 361 361 360 360 360 360 359 359 359 360 359
289 295 302 301 303 303 302 306 324 327 325 326 345 346 349 350 350 353 353 356 357 361 361 360 360 359 359 358 359 359 359 359
289 294 297 302 301 300 301 302 311 327 322 325 339 345 348 347 350 352 354 355 355 356 359 361 359 359 358 358 358 358 358 358
291 292 295 304 301 300 300 304 319 325 314 314 333 344 346 344 348 349 351 352 353 355 357 356 356 359 359 359 358 358 358 357
292 295 296 300 299 303 305 306 310 313 317 321 332 342 341 343 346 347 349 347 351 353 355 355 355 357 358 360 359 358 358 357
298 300 298 298 298 300 303 304 306 310 313 315 337 339 340 340 341 344 345 346 350 351 353 353 356 354 354 355 355 355 353 352
299 302 299 298 300 302 302 300 303 304 306 308 310 321 339 340 342 343 346 346 347 349 350 351 352 354 354 354 354 354 352 352
299 302 297 298 301 300 299 301 305 305 307 306 305 306 314 330 338 342 344 345 346 347 348 348 349 351 351 351 352 351 352 351
300 299 297 300 299 299 300 304 305 305 306 304 304 304 305 310 315 333 343 345 344 346 346 347 348 349 350 350 351 351 351 351
298 297 297 298 299 299 302 306 305 303 303 303 303 304 303 304 307 309 327 343 344 344 345 345 346 346 347 348 349 349 350 350
296 298 297 299 296 297 303 304 303 302 302 302 303 304 305 305 305 322 324 329 341 342 344 341 343 345 344 345 345 346 347 348
295 297 299 299 292 299 303 301 300 301 302 303 303 304 305 305 304 317 333 337 337 343 341 340 341 342 345 343 341 342 342 343
293 298 297 295 291 299 301 300 299 300 301 302 301 304 305 306 307 323 335 336 338 340 341 342 336 337 344 348 344 341 340 339
291 295 295 293 293 297 300 298 299 300 300 301 302 304 306 308 315 325 334 334 334 338 338 337 332 333 336 341 345 346 343 340
293 296 294 292 292 295 298 295 296 297 298 300 301 304 304 310 316 322 330 331 330 330 329 330 329 327 329 335 340 341 344 345
293 295 293 292 292 295 296 295 296 298 299 299 299 302 304 308 312 317 321 320 323 325 325 327 326 325 326 326 328 330 333 334
291 295 294 291 289 292 296 297 299 298 298 299 300 301 301 306 311 313 316 319 322 322 321 320 321 320 317 317 316 315 319 322
293 289 284 291 282 288 293 294 296 298 297 298 300 301 302 308 311 314 316 317 316 317 318 319 317 315 314 313 311 314 317 321
Wind_Speed
5 3 5 5 5 5 12 3 8 4 2 2 0 3 9 8 14 13 11 10 13 15 13 16 17 17 16 15 15 14 14 14
4 5 7 7 4 7 12 12 2 3 6 3 2 7 8 13 15 15 10 8 15 17 14 15 17 17 16 15 15 14 13 13
0 5 6 2 5 6 7 6 2 5 2 2 3 11 16 15 14 15 11 8 11 17 16 15 16 16 16 16 16 16 16 15
4 6 5 3 5 5 2 5 3 7 5 1 6 13 11 14 13 11 13 10 10 16 16 16 16 16 16 16 16 16 16 16
3 4 7 1 3 5 5 2 7 11 7 3 6 7 14 13 11 12 10 10 8 9 12 14 15 15 15 15 15 15 15 14
5 4 7 2 5 4 3 7 4 4 7 7 9 11 9 8 8 8 9 9 9 9 10 11 11 17 16 16 15 14 13 13
5 5 5 6 8 6 5 4 4 4 4 5 11 13 9 8 5 6 6 6 8 11 11 10 9 12 17 19 17 15 13 13
6 5 4 3 3 4 5 8 7 5 8 8 13 15 13 11 10 9 11 10 9 9 10 9 8 7 6 7 7 8 7 6
4 6 2 4 9 4 3 2 2 1 2 5 5 3 10 13 15 19 12 8 10 6 5 8 6 6 6 6 6 6 7 8
3 5 2 6 4 5 1 7 4 4 3 2 3 8 9 8 7 8 10 10 9 8 8 6 4 5 6 7 7 6 8 7
6 9 6 4 9 7 6 10 6 4 5 5 5 4 9 7 6 7 9 12 13 12 11 10 7 5 6 8 8 9 9 10
5 9 5 6 11 8 8 10 8 6 7 8 9 8 4 9 7 8 10 12 13 15 12 12 10 10 8 6 6 5 7 7
6 8 8 8 9 8 11 7 8 8 8 8 10 6 10 8 9 10 8 6 13 13 12 12 10 8 6 6 5 5 4 5
5 3 8 9 12 6 9 7 10 10 8 8 9 10 9 8 7 10 6 7 7 9 12 10 9 5 4 4 4 4 4 4
5 5 2 5 5 10 6 8 10 10 9 8 9 9 10 7 8 9 9 9 8 9 11 9 7 4 4 4 4 3 3 3
5 1 4 4 8 10 12 9 13 10 9 8 8 13 11 8 7 8 8 8 8 8 9 7 5 4 1 3 4 3 4 6
4 4 1 7 7 10 11 3 7 8 9 9 10 11 5 3 5 7 5 8 10 10 7 6 3 3 2 4 2 2 2 4
10 7 7 9 9 9 4 6 8 9 9 10 7 7 6 7 6 6 8 7 8 9 9 6 4 3 3 2 1 2 2 3
9 5 3 3 5 6 5 5 2 5 6 7 9 10 5 9 10 7 9 10 9 9 8 5 6 5 3 3 3 3 4 2
6 3 5 3 6 6 6 7 5 8 7 9 9 9 6 9 11 13 8 7 6 7 8 7 7 4 5 4 2 2 1 1
Wind_Direction
95 113 175 229 243 312 310 317 232 161 104 91 198 77 158 137 140 127 140 153 150 149 159 143 140 137 134 132 131 133 137 140
95 219 250 213 283 297 315 325 65 103 76 58 249 156 140 136 138 135 142 157 151 146 157 150 145 141 140 140 140 142 146 150
140 252 260 244 261 276 295 298 203 115 132 60 24 108 130 140 148 146 147 153 153 150 154 157 152 150 150 151 154 157 159 162
236 249 256 310 277 285 260 305 224 102 108 155 138 135 154 150 153 155 151 154 159 157 157 160 161 159 161 163 165 170 171 171
223 268 291 213 337 325 289 244 237 147 122 141 201 166 156 155 153 151 153 152 156 156 160 162 165 167 168 170 175 176 177 178
233 217 263 215 335 249 334 302 349 173 164 185 204 156 145 136 140 142 158 165 162 159 167 169 172 173 174 176 179 181 184 181
212 194 241 322 26 346 296 346 329 321 162 153 133 137 126 119 110 129 165 176 179 175 176 177 180 184 180 180 181 182 186 189
205 218 270 331 305 360 3 349 344 20 15 44 128 147 153 167 171 175 186 192 190 187 177 169 179 180 184 188 185 183 185 189
228 246 290 291 320 9 339 360 263 47 64 86 99 145 177 185 184 187 188 184 184 178 175 175 181 171 183 192 192 197 193 185
175 237 277 269 273 307 196 232 184 258 274 49 70 140 198 196 200 174 177 184 171 173 173 177 151 180 179 197 195 202 203 200
236 259 240 272 260 239 272 250 228 220 189 212 199 248 149 219 222 177 185 185 188 178 181 179 164 174 190 199 198 204 204 198
272 257 243 203 256 148 251 254 253 201 235 210 217 209 254 158 212 194 210 199 183 186 181 182 180 176 186 194 200 201 205 203
253 251 229 173 263 210 230 240 249 265 253 245 235 223 211 220 161 206 219 201 187 178 172 180 182 183 173 193 197 204 199 207
273 259 254 155 254 263 248 233 247 249 251 251 250 225 237 229 204 183 205 186 146 167 169 170 189 170 155 174 186 207 193 195
290 207 215 163 281 270 265 246 254 254 246 241 252 252 240 217 205 176 173 153 150 152 167 162 141 143 133 191 212 216 184 224
202 248 181 278 265 284 286 224 226 238 262 266 255 240 237 203 190 161 163 150 144 156 165 142 122 117 199 207 217 206 207 212
260 252 305 253 251 265 285 245 233 230 248 255 242 250 255 194 122 132 165 161 168 156 169 144 137 148 173 210 184 177 183 281
290 258 165 267 251 248 288 249 222 216 236 241 248 244 220 166 157 181 162 161 148 141 156 166 148 139 134 129 45 26 66 60
224 293 221 245 281 275 278 280 269 251 249 292 245 237 209 173 185 173 172 169 162 157 146 138 130 104 74 58 39 41 13 37
237 251 236 133 275 291 272 295 299 277 266 265 263 252 195 185 183 180 176 156 146 148 148 146 144 119 131 142 130 180 162 265